When you browse on this site, cookies collect data to enhance your experience and personalize the content and advertising you see.
Visit our Privacy Policy to learn more. By continuing to use the site, you agree to this use of cookies and data.
  • în România
  • Lista ţărilor
  • Pe 7 zile
  • Temperatura apei
  • Meteo pe hartă
  • Widget-uri
  • user-avatar
    Intrare

    Meteo pe oră la Paro

    Astăzi, 7 Aprilie, Marţi

    Timp Temperatura Precipitaţii Vânt Presiune Umiditate
    00:00 +5°C° 0 mm 2 m/s 557 mmHg 76%
    01:00 +6°C° 0 mm 1 m/s 557 mmHg 76%
    02:00 +6°C° 0 mm 1 m/s 557 mmHg 77%
    03:00 +6°C° 0 mm 1 m/s 556 mmHg 77%
    04:00 +6°C° 0 mm 1 m/s 556 mmHg 78%
    05:00 +5°C° 0 mm 1 m/s 556 mmHg 78%
    06:00 +5°C° 0 mm 2 m/s 557 mmHg 78%
    07:00 +8°C° 0 mm 1 m/s 559 mmHg 66%
    08:00 +11°C° 0 mm 1 m/s 561 mmHg 55%
    09:00 +14°C° 0 mm 1 m/s 562 mmHg 44%
    10:00 +15°C° 0 mm 2 m/s 562 mmHg 41%
    11:00 +17°C° 0 mm 2 m/s 563 mmHg 39%
    12:00 +17°C° 0 mm 3 m/s 563 mmHg 36%
    13:00 +17°C° 0.2 mm 3 m/s 562 mmHg 40%
    14:00 +16°C° 0.2 mm 2 m/s 561 mmHg 45%
    15:00 +16°C° 0.2 mm 2 m/s 560 mmHg 49%
    16:00 +15°C° 0.1 mm 2 m/s 559 mmHg 55%
    17:00 +13°C° 0.1 mm 2 m/s 558 mmHg 60%
    18:00 +12°C° 0.1 mm 1 m/s 558 mmHg 66%
    19:00 +11°C° 0 mm 1 m/s 558 mmHg 70%
    20:00 +9°C° 0 mm 1 m/s 558 mmHg 74%
    21:00 +8°C° 0 mm 1 m/s 558 mmHg 78%
    22:00 +8°C° 0 mm 1 m/s 558 mmHg 78%
    23:00 +8°C° 0 mm 1 m/s 558 mmHg 77%

    Mâine, 8 Aprilie, Miercuri

    Timp Temperatura Precipitaţii Vânt Presiune Umiditate
    00:00 +7°C° 0 mm 1 m/s 558 mmHg 77%
    01:00 +7°C° 0 mm 1 m/s 557 mmHg 76%
    02:00 +7°C° 0 mm 1 m/s 557 mmHg 76%
    03:00 +7°C° 0 mm 1 m/s 557 mmHg 75%
    04:00 +6°C° 0 mm 1 m/s 557 mmHg 75%
    05:00 +6°C° 0 mm 1 m/s 557 mmHg 75%
    06:00 +6°C° 0 mm 1 m/s 557 mmHg 74%
    07:00 +9°C° 0 mm 1 m/s 559 mmHg 64%
    08:00 +12°C° 0 mm 1 m/s 561 mmHg 53%
    09:00 +15°C° 0 mm 2 m/s 563 mmHg 42%
    10:00 +16°C° 0 mm 2 m/s 563 mmHg 40%
    11:00 +17°C° 0 mm 3 m/s 563 mmHg 38%
    12:00 +18°C° 0 mm 3 m/s 564 mmHg 36%
    13:00 +17°C° 0.3 mm 3 m/s 563 mmHg 41%
    14:00 +16°C° 0.3 mm 3 m/s 562 mmHg 47%
    15:00 +16°C° 0.3 mm 3 m/s 561 mmHg 52%
    16:00 +13°C° 0.3 mm 3 m/s 560 mmHg 60%
    17:00 +13°C° 0.3 mm 2 m/s 559 mmHg 67%
    18:00 +10°C° 0.3 mm 2 m/s 558 mmHg 74%
    19:00 +10°C° 0.1 mm 1 m/s 558 mmHg 78%
    20:00 +9°C° 0.1 mm 1 m/s 559 mmHg 82%
    21:00 +8°C° 0.1 mm 1 m/s 559 mmHg 85%
    22:00 +8°C° 0 mm 1 m/s 559 mmHg 85%
    23:00 +8°C° 0 mm 1 m/s 559 mmHg 85%

    Poimâine, 9 Aprilie, Joi

    Timp Temperatura Precipitaţii Vânt Presiune Umiditate
    00:00 +7°C° 0 mm 1 m/s 559 mmHg 85%
    01:00 +7°C° 0.1 mm 1 m/s 559 mmHg 84%
    02:00 +7°C° 0.1 mm 1 m/s 558 mmHg 83%
    03:00 +7°C° 0.1 mm 1 m/s 558 mmHg 82%
    04:00 +7°C° 0 mm 1 m/s 558 mmHg 80%
    05:00 +6°C° 0 mm 1 m/s 559 mmHg 79%
    06:00 +6°C° 0 mm 1 m/s 559 mmHg 77%
    07:00 +9°C° 0 mm 1 m/s 560 mmHg 67%
    08:00 +12°C° 0 mm 1 m/s 562 mmHg 56%
    09:00 +15°C° 0 mm 1 m/s 564 mmHg 46%
    10:00 +15°C° 0.2 mm 2 m/s 564 mmHg 46%
    11:00 +16°C° 0.2 mm 2 m/s 564 mmHg 46%
    12:00 +17°C° 0.2 mm 3 m/s 564 mmHg 46%
    13:00 +16°C° 0.9 mm 3 m/s 562 mmHg 50%
    14:00 +14°C° 0.9 mm 3 m/s 561 mmHg 55%
    15:00 +14°C° 0.9 mm 3 m/s 560 mmHg 60%
    16:00 +13°C° 1 mm 2 m/s 559 mmHg 69%
    17:00 +10°C° 1 mm 2 m/s 559 mmHg 78%
    18:00 +10°C° 1 mm 1 m/s 558 mmHg 87%
    19:00 +9°C° 0.4 mm 1 m/s 558 mmHg 87%
    20:00 +8°C° 0.4 mm 1 m/s 558 mmHg 86%
    21:00 +6°C° 0.4 mm 2 m/s 558 mmHg 86%
    22:00 +6°C° 0 mm 2 m/s 559 mmHg 85%
    23:00 +6°C° 0 mm 2 m/s 559 mmHg 83%

    10 Aprilie, Vineri

    Timp Temperatura Precipitaţii Vânt Presiune Umiditate
    00:00 +6°C° 0 mm 2 m/s 559 mmHg 82%
    01:00 +6°C° 0 mm 2 m/s 559 mmHg 82%
    02:00 +5°C° 0 mm 2 m/s 559 mmHg 82%
    03:00 +5°C° 0 mm 2 m/s 558 mmHg 82%
    04:00 +5°C° 0 mm 2 m/s 558 mmHg 81%
    05:00 +5°C° 0 mm 2 m/s 559 mmHg 80%
    06:00 +5°C° 0 mm 2 m/s 559 mmHg 79%
    07:00 +8°C° 0 mm 2 m/s 561 mmHg 69%
    08:00 +12°C° 0 mm 2 m/s 562 mmHg 59%
    09:00 +15°C° 0 mm 1 m/s 564 mmHg 49%
    10:00 +16°C° 0.1 mm 2 m/s 565 mmHg 46%
    11:00 +17°C° 0.1 mm 2 m/s 565 mmHg 43%
    12:00 +18°C° 0.1 mm 2 m/s 565 mmHg 41%
    13:00 +18°C° 0.3 mm 2 m/s 564 mmHg 45%
    14:00 +17°C° 0.3 mm 2 m/s 564 mmHg 49%
    15:00 +17°C° 0.3 mm 2 m/s 563 mmHg 52%
    16:00 +15°C° 0.5 mm 2 m/s 562 mmHg 62%
    17:00 +14°C° 0.5 mm 2 m/s 561 mmHg 72%
    18:00 +12°C° 0.5 mm 1 m/s 560 mmHg 82%
    19:00 +11°C° 0 mm 1 m/s 560 mmHg 85%
    20:00 +10°C° 0 mm 1 m/s 560 mmHg 87%
    21:00 +9°C° 0 mm 1 m/s 560 mmHg 90%
    22:00 +9°C° 0 mm 1 m/s 560 mmHg 89%
    23:00 +8°C° 0 mm 1 m/s 560 mmHg 88%

    11 Aprilie, Sâmbătă

    Timp Temperatura Precipitaţii Vânt Presiune Umiditate
    00:00 +8°C° 0 mm 1 m/s 560 mmHg 88%
    01:00 +8°C° 0.1 mm 1 m/s 560 mmHg 86%
    02:00 +8°C° 0.1 mm 1 m/s 560 mmHg 85%
    03:00 +7°C° 0.1 mm 1 m/s 560 mmHg 84%
    04:00 +7°C° 0 mm 1 m/s 560 mmHg 83%
    05:00 +7°C° 0 mm 1 m/s 560 mmHg 82%
    06:00 +6°C° 0 mm 2 m/s 560 mmHg 81%
    07:00 +9°C° 0.1 mm 1 m/s 562 mmHg 72%
    08:00 +12°C° 0.1 mm 1 m/s 563 mmHg 63%
    09:00 +15°C° 0.1 mm 1 m/s 565 mmHg 54%
    10:00 +15°C° 0.7 mm 2 m/s 565 mmHg 55%
    11:00 +16°C° 0.7 mm 2 m/s 564 mmHg 55%
    12:00 +16°C° 0.7 mm 2 m/s 564 mmHg 55%
    13:00 +16°C° 1.1 mm 2 m/s 563 mmHg 59%
    14:00 +15°C° 1.1 mm 2 m/s 562 mmHg 63%
    15:00 +15°C° 1.1 mm 1 m/s 561 mmHg 67%
    16:00 +13°C° 1.8 mm 1 m/s 560 mmHg 75%
    17:00 +11°C° 1.8 mm 1 m/s 559 mmHg 83%
    18:00 +10°C° 1.8 mm 1 m/s 558 mmHg 91%
    19:00 +10°C° 0.1 mm 1 m/s 559 mmHg 91%
    20:00 +9°C° 0.1 mm 1 m/s 560 mmHg 90%
    21:00 +9°C° 0.1 mm 1 m/s 560 mmHg 90%
    22:00 +9°C° 0.1 mm 1 m/s 560 mmHg 89%
    23:00 +8°C° 0.1 mm 1 m/s 560 mmHg 87%

    12 Aprilie, Duminică

    Timp Temperatura Precipitaţii Vânt Presiune Umiditate
    00:00 +8°C° 0.1 mm 1 m/s 560 mmHg 86%
    01:00 +8°C° 0 mm 1 m/s 559 mmHg 85%
    02:00 +8°C° 0 mm 1 m/s 559 mmHg 84%
    03:00 +7°C° 0 mm 1 m/s 559 mmHg 83%
    04:00 +7°C° 0 mm 1 m/s 559 mmHg 81%
    05:00 +8°C° 0 mm 1 m/s 559 mmHg 80%
    06:00 +8°C° 0 mm 1 m/s 559 mmHg 78%
    07:00 +10°C° 0 mm 1 m/s 561 mmHg 69%
    08:00 +13°C° 0 mm 1 m/s 562 mmHg 61%
    09:00 +15°C° 0 mm 1 m/s 564 mmHg 52%
    10:00 +16°C° 0.4 mm 1 m/s 564 mmHg 52%
    11:00 +17°C° 0.4 mm 2 m/s 564 mmHg 52%
    12:00 +18°C° 0.4 mm 2 m/s 564 mmHg 52%
    13:00 +17°C° 1.1 mm 2 m/s 563 mmHg 57%
    14:00 +16°C° 1.1 mm 2 m/s 562 mmHg 62%
    15:00 +16°C° 1.1 mm 2 m/s 561 mmHg 67%
    16:00 +15°C° 0.5 mm 1 m/s 561 mmHg 74%
    17:00 +14°C° 0.5 mm 1 m/s 560 mmHg 81%
    18:00 +12°C° 0.5 mm 1 m/s 559 mmHg 89%
    19:00 +12°C° 0.1 mm 1 m/s 559 mmHg 86%
    20:00 +11°C° 0.1 mm 1 m/s 560 mmHg 83%
    21:00 +9°C° 0.1 mm 2 m/s 560 mmHg 81%
    22:00 +10°C° 0 mm 1 m/s 560 mmHg 79%
    23:00 +9°C° 0 mm 1 m/s 560 mmHg 77%
    Arată mai mult